Theta_e
315 322 326 322 320 318 315 311 310 313 311 311 313 314 314 313 312 311 311 312 310 311 313 313 314 312 312 312 312 312 311 311 311 311 311 310 309 307 306 305 304 304 305 305 304 305 305 304 304 305 305 305 305 305 305 307 310 314 319 322 323 324 323 324 325 326 325 325 325 324 324 323 323 323 322 322 322 322 322 320 321 321 320 320 319 319
318 321 323 321 318 315 312 310 310 311 311 312 314 316 314 312 313 311 311 311 309 311 313 314 315 312 313 312 311 311 311 311 311 311 311 309 306 305 304 303 303 303 303 303 303 303 303 303 303 304 305 305 305 306 306 307 309 312 316 320 322 323 323 323 325 326 326 325 324 324 324 323 323 323 322 322 322 322 321 320 321 321 320 319 318 318
322 325 323 317 313 313 313 311 311 310 312 314 314 316 314 313 314 313 312 313 312 312 313 313 314 312 311 312 311 311 310 311 312 312 309 307 305 303 303 303 302 302 302 302 302 302 301 302 302 303 304 304 305 305 306 307 308 311 314 317 320 323 323 323 323 325 326 325 324 324 324 323 322 323 322 322 321 321 321 320 320 321 320 320 318 318
319 324 321 314 312 311 314 317 314 310 312 315 315 314 314 313 313 313 313 313 312 311 311 313 314 313 311 310 310 310 311 311 313 312 307 304 305 303 303 302 302 301 301 301 301 300 300 300 301 302 303 304 304 304 305 306 307 309 312 314 317 321 323 323 322 323 324 325 324 324 323 322 322 322 322 321 321 321 320 320 319 320 320 320 320 320
317 316 314 317 318 313 313 318 315 312 313 316 316 314 314 314 314 313 313 312 311 310 311 314 314 313 310 309 308 309 310 311 312 311 306 303 304 303 303 302 301 301 300 300 299 299 300 300 301 302 303 304 304 304 304 305 306 308 309 311 314 319 322 323 322 322 323 324 324 324 323 322 322 322 321 321 320 320 320 319 319 319 319 320 320 320
315 310 309 317 320 313 312 315 314 312 313 317 319 316 315 315 315 315 313 312 311 310 311 313 311 309 308 307 307 307 308 309 310 310 306 304 305 303 302 301 300 300 299 299 299 299 300 300 300 301 302 303 303 304 304 304 306 307 308 309 312 316 319 322 322 322 323 324 324 324 324 323 322 322 321 321 320 320 320 320 319 319 319 319 319 320
312 311 310 313 314 312 313 315 314 312 311 315 317 315 316 315 315 315 313 312 311 308 308 310 309 309 308 307 307 308 308 309 310 309 306 305 305 304 302 300 299 298 298 298 298 299 300 300 301 302 302 303 304 304 304 304 305 306 307 308 309 312 315 319 322 323 323 324 324 324 324 323 323 322 321 321 320 320 320 319 319 319 318 318 319 319
313 314 315 314 312 312 314 313 313 313 313 317 316 312 312 312 311 312 312 311 310 308 307 308 311 311 310 308 309 311 311 312 311 309 307 306 305 304 301 298 297 297 297 298 298 299 300 300 301 302 303 304 304 305 305 305 305 306 307 308 308 310 312 315 319 322 322 324 325 324 324 323 323 323 321 321 320 320 320 319 319 319 318 318 318 318
312 313 314 313 311 312 313 312 312 311 313 318 315 309 309 310 310 311 311 310 309 309 309 309 310 311 311 309 309 314 314 314 312 308 307 306 304 302 298 296 296 296 297 297 298 299 299 300 301 302 304 305 306 305 305 305 305 306 307 307 308 308 310 311 314 319 322 323 324 325 324 323 322 322 321 321 320 320 319 319 319 319 318 317 318 318
310 310 310 309 309 311 312 310 312 312 310 314 312 308 309 309 309 309 309 310 309 310 310 309 309 311 311 308 308 314 314 311 309 306 305 305 303 299 296 296 296 295 296 297 298 298 299 300 301 302 304 305 306 305 305 305 305 306 306 307 308 308 309 310 311 316 320 322 323 325 325 323 322 321 321 320 320 319 319 319 319 318 318 317 317 317
310 309 307 307 308 310 310 309 313 312 308 310 310 309 309 309 310 311 311 311 311 310 310 309 310 310 308 307 309 312 311 307 304 301 300 301 299 296 295 296 295 295 296 297 297 297 298 298 299 300 303 304 305 304 304 304 303 304 305 306 307 307 308 309 310 313 318 321 322 323 325 324 323 322 321 320 320 319 319 318 318 318 318 317 316 317
312 313 309 309 310 309 309 309 310 308 304 307 309 309 310 312 312 309 311 312 311 309 308 307 308 305 302 303 306 309 306 304 300 297 297 298 297 295 295 296 295 295 296 296 296 296 296 297 298 299 301 303 304 303 302 302 302 302 303 305 306 306 307 309 310 312 315 319 321 322 323 324 323 322 321 320 320 319 318 318 318 318 318 317 317 316
316 318 309 307 309 308 311 312 309 308 305 303 308 310 310 311 308 304 308 310 308 307 304 302 303 301 301 302 304 306 305 301 297 296 297 297 296 295 296 296 295 295 296 295 295 295 295 296 297 298 300 302 302 301 300 301 301 300 301 303 305 305 306 307 310 311 313 317 320 321 321 322 323 323 322 321 320 319 319 318 318 318 317 317 317 316
314 315 308 307 309 307 311 312 308 308 304 301 307 311 309 307 307 306 308 307 304 303 301 299 301 302 303 305 306 305 303 299 296 297 296 296 296 296 296 296 296 295 295 295 294 294 295 295 296 296 299 301 301 299 299 299 300 300 300 302 303 304 305 307 309 311 312 315 318 320 320 320 321 321 321 321 320 320 319 318 318 318 317 317 317 316
309 308 307 308 309 308 307 306 306 305 301 302 307 310 309 308 307 306 304 302 300 300 300 300 303 304 304 306 304 300 298 296 296 297 296 296 296 296 297 296 295 295 295 295 294 293 294 294 295 296 298 300 299 297 298 298 299 299 299 300 302 303 305 306 308 311 312 313 316 319 319 319 319 320 320 321 320 320 319 319 318 318 317 317 317 316
309 308 309 307 309 310 304 301 305 302 298 304 307 308 310 308 305 303 300 300 299 300 302 302 303 303 301 303 301 296 296 295 295 296 296 296 296 296 297 296 295 295 295 294 293 293 294 293 294 295 297 299 298 296 297 297 298 299 299 299 300 302 304 305 308 311 312 312 315 319 319 318 318 319 320 320 320 320 319 319 318 318 317 317 316 316
310 310 309 307 307 306 300 297 301 300 299 306 307 305 307 305 301 300 299 300 301 301 302 300 300 299 298 299 298 295 295 295 295 296 295 295 296 296 296 296 295 294 295 294 293 292 293 293 293 293 295 298 297 295 296 297 297 298 299 299 299 301 302 304 306 310 311 312 314 317 319 318 318 318 319 320 320 320 319 319 319 318 318 317 316 316
307 307 305 306 306 303 301 299 299 301 303 304 303 301 301 300 299 300 300 300 300 299 298 297 297 296 295 298 297 294 294 294 295 295 294 295 296 295 296 295 294 295 295 294 293 293 293 292 292 292 294 296 296 295 295 296 297 297 298 299 299 299 301 303 305 308 311 312 313 316 317 318 317 317 318 319 319 319 319 319 319 318 318 317 317 316
306 305 304 306 306 302 300 300 299 303 303 299 299 298 298 300 300 301 300 298 297 297 295 295 295 295 295 295 295 294 294 294 295 294 294 295 295 295 295 295 294 295 295 295 293 293 293 292 292 292 293 295 296 295 295 295 296 297 298 298 298 299 299 301 302 305 309 311 312 314 316 317 317 316 317 317 318 318 318 319 318 318 318 317 316 316
306 306 304 304 301 298 297 298 298 300 300 297 297 297 298 300 300 299 297 296 295 295 295 294 294 294 294 294 294 294 294 294 294 294 294 295 295 295 295 294 294 295 295 295 293 292 292 292 291 291 292 295 295 295 294 295 296 297 298 298 298 298 298 299 300 302 306 309 311 312 314 315 315 315 316 316 317 317 317 318 318 318 318 317 317 315
306 306 304 299 297 295 296 300 299 296 296 295 295 296 296 297 298 297 296 296 295 294 294 294 294 294 294 294 294 294 294 294 294 294 295 295 295 294 294 294 294 295 296 295 293 292 292 291 290 291 292 294 295 295 294 295 296 297 298 298 298 298 298 298 298 299 302 305 308 310 312 313 313 314 315 315 316 316 316 317 317 317 317 317 317 315
304 305 302 297 295 294 295 299 298 295 295 296 296 295 295 295 296 296 295 295 295 294 294 295 295 295 294 295 295 294 294 294 294 295 295 294 294 294 293 294 294 295 296 295 294 292 292 291 291 291 292 294 295 295 294 295 296 297 297 297 297 297 297 297 297 298 299 301 305 307 309 311 312 314 314 314 315 316 316 316 316 316 316 316 316 315
301 301 300 297 295 294 295 296 296 295 296 297 296 294 294 294 295 295 295 294 295 295 295 296 297 296 295 296 295 294 294 295 295 295 294 293 293 293 293 294 294 295 295 294 294 292 291 291 290 290 292 293 294 295 294 295 296 297 297 297 297 297 297 297 297 297 298 299 301 303 305 308 311 313 313 313 314 315 315 315 315 315 315 316 316 315
297 298 299 296 293 293 293 294 295 295 294 294 294 293 294 294 294 295 295 294 295 295 295 296 296 296 295 296 295 294 295 294 294 293 292 292 292 292 293 293 293 294 294 294 294 292 291 291 291 291 292 293 294 295 294 295 296 297 297 297 297 297 296 296 296 297 298 298 298 299 301 304 308 312 313 313 313 314 315 315 315 315 315 315 315 314
296 296 298 294 290 290 291 291 292 293 293 292 293 293 293 294 293 294 294 294 294 294 294 295 295 295 294 295 295 294 294 293 292 291 292 292 292 292 293 293 293 293 294 294 294 292 292 291 292 292 292 292 294 295 294 295 296 296 297 297 297 297 296 296 296 296 297 298 298 297 298 301 305 310 312 313 313 314 314 315 315 314 314 314 314 314
297 296 297 293 291 291 290 290 291 292 293 293 293 293 293 293 293 293 293 294 294 294 293 294 294 294 294 294 294 293 292 291 291 291 291 291 292 292 292 292 293 293 293 294 294 293 292 292 292 292 292 292 293 294 294 295 295 296 296 296 297 297 297 296 296 296 297 298 298 297 297 298 302 308 311 312 312 313 313 314 314 314 314 313 313 313
297 296 295 293 292 292 291 291 292 293 293 293 293 293 293 293 293 293 293 293 293 293 293 294 294 294 294 293 292 291 290 290 290 291 291 291 291 292 292 292 293 292 293 293 294 293 292 292 292 292 292 292 293 294 294 294 295 295 295 296 296 297 297 296 296 296 297 297 297 297 297 297 299 304 309 311 311 312 313 313 313 313 313 313 312 311
296 295 294 293 292 292 292 292 292 293 293 293 293 293 292 293 293 292 292 292 292 293 293 293 293 293 293 291 291 290 290 290 290 290 291 291 291 292 292 292 292 292 292 293 293 293 293 293 292 292 292 292 293 294 294 294 294 294 295 295 296 296 296 296 296 296 296 297 297 297 297 297 297 300 306 310 310 311 312 312 312 312 312 312 311 311
294 294 294 293 293 292 292 292 293 293 292 292 292 292 292 292 292 292 292 291 291 292 293 292 292 292 291 290 290 290 290 290 290 290 291 291 291 292 292 292 292 292 292 292 292 292 292 293 293 293 292 292 293 293 293 294 294 294 295 295 295 295 296 296 296 296 296 296 297 297 297 297 297 297 301 307 309 310 310 311 311 311 311 310 309 310
294 294 293 293 294 293 292 292 292 292 292 292 292 291 291 291 291 291 291 291 291 292 291 291 290 290 290 290 290 290 290 291 291 291 291 291 291 292 292 292 292 292 292 293 292 292 292 293 293 293 292 293 293 293 293 293 294 294 294 294 295 295 295 296 296 296 296 296 296 297 297 296 297 296 298 303 307 309 309 310 309 309 309 309 309 308
295 294 293 293 294 292 292 292 292 291 291 291 290 290 290 290 290 291 290 290 290 290 290 290 290 290 290 290 290 290 291 291 291 291 291 291 291 292 292 292 292 292 292 292 292 292 293 293 293 293 292 293 293 293 293 293 293 294 294 294 294 294 295 295 296 295 295 296 296 297 297 296 296 296 297 301 305 307 308 308 308 308 307 307 307 307
294 294 293 294 293 292 291 291 291 290 290 290 290 290 290 290 290 290 290 289 290 290 289 290 290 289 290 290 290 290 291 291 291 291 291 291 291 291 291 291 291 292 292 293 293 293 293 293 293 293 293 293 293 293 293 293 293 293 294 294 294 294 294 295 295 295 295 295 296 296 297 296 296 296 296 299 303 306 306 307 307 306 306 305 305 306
294 294 294 294 293 292 291 290 290 290 290 292 292 291 290 290 289 289 289 289 290 290 290 290 290 289 289 290 290 290 291 291 291 291 291 291 291 291 291 291 292 292 291 290 289 289 290 291 291 291 291 292 292 292 293 293 293 293 293 294 293 294 294 294 294 295 295 295 296 296 296 296 296 296 296 298 302 304 304 304 305 305 305 304 304 305
294 293 294 294 293 292 291 290 290 290 292 293 292 290 289 288 288 288 289 289 289 289 289 289 289 289 289 290 290 290 291 291 291 291 291 290 290 291 291 291 290 287 284 283 282 282 283 285 285 286 287 288 289 290 291 292 292 292 292 292 293 293 293 294 294 294 295 295 295 296 296 296 296 296 296 297 300 302 302 303 303 303 304 303 303 303
293 293 293 293 292 291 291 291 291 291 293 293 290 289 289 289 289 289 288 289 289 289 289 289 289 289 290 290 290 290 291 291 290 289 289 289 290 290 290 287 283 280 279 279 279 279 280 281 281 282 283 284 285 286 288 289 289 289 289 290 291 292 292 293 293 294 294 295 295 296 296 296 296 296 296 297 299 301 301 302 302 302 302 302 302 302
293 292 292 291 291 290 291 292 292 291 290 290 289 289 289 289 289 289 289 289 289 289 289 289 289 289 290 290 291 291 290 289 287 287 287 288 288 287 284 281 279 278 278 278 278 278 278 278 278 278 279 281 282 283 285 286 286 286 287 288 290 291 291 292 293 294 294 295 296 296 296 297 296 296 297 297 298 300 300 301 302 301 301 301 302 302
292 292 292 291 291 291 291 291 291 290 289 289 289 289 289 289 289 289 289 289 289 289 289 289 289 289 290 290 290 289 287 286 285 285 286 285 284 282 279 278 277 276 276 276 276 277 277 276 276 276 276 277 278 278 280 282 284 285 287 288 289 290 290 291 293 294 294 295 295 296 296 297 296 296 297 297 298 299 300 300 301 301 301 301 300 301
291 292 292 292 291 292 291 290 290 289 289 289 289 289 290 289 289 289 289 289 289 289 289 289 290 290 290 290 288 286 284 284 283 284 284 283 280 278 277 276 276 275 275 275 275 275 275 275 274 275 275 275 276 276 277 278 280 283 285 287 288 289 290 291 292 293 294 294 295 296 297 297 296 297 297 297 298 299 299 300 301 300 300 300 300 300
291 291 291 291 290 290 289 289 289 289 289 289 290 290 289 290 290 289 289 289 289 289 289 290 290 290 289 287 285 283 283 282 282 282 282 280 278 276 275 275 274 274 274 274 274 274 274 275 275 275 275 275 275 276 276 277 278 280 283 285 286 287 289 291 292 293 293 294 294 295 296 297 296 297 298 298 298 299 299 300 300 300 300 300 300 300
290 290 290 290 289 289 289 289 289 289 289 289 289 289 289 290 290 290 289 290 289 289 290 290 290 288 286 284 283 282 281 281 280 280 279 277 276 275 274 273 273 273 272 273 273 273 274 274 275 275 275 275 276 276 276 277 278 279 281 283 285 287 289 290 291 292 292 293 293 295 296 297 297 297 298 298 298 299 300 300 300 300 300 300 300 300
290 290 289 289 289 289 289 290 289 289 289 289 289 289 290 290 290 290 290 290 289 290 290 289 287 285 283 282 281 280 280 279 278 277 276 275 274 274 273 272 272 271 272 272 272 273 274 274 275 276 276 276 276 276 276 277 278 279 280 282 283 285 286 287 289 290 291 292 292 294 295 296 296 297 297 299 299 299 299 300 300 300 299 299 299 299
291 291 291 290 290 289 289 290 289 289 290 290 289 290 290 291 290 290 290 290 290 290 289 286 284 281 280 280 279 278 277 277 275 275 274 274 273 272 271 271 271 271 271 272 272 273 274 274 275 276 276 276 277 277 277 277 277 278 279 280 282 283 284 285 286 289 290 291 291 293 294 295 296 297 297 298 299 299 299 299 300 300 299 299 299 299
291 292 292 291 291 290 290 291 290 291 292 291 290 290 290 291 290 290 290 290 289 288 285 282 280 279 278 277 277 276 275 275 273 273 272 272 271 270 270 270 270 270 271 271 272 273 273 274 275 276 276 276 277 277 277 277 277 278 279 280 282 283 284 285 286 288 290 290 291 292 294 295 296 296 297 298 299 299 299 299 299 299 299 298 298 298
291 292 291 291 291 291 292 292 292 291 291 290 290 290 290 290 290 290 289 287 286 284 282 279 278 278 277 275 275 274 274 273 272 271 270 270 269 269 269 269 269 270 270 271 272 273 274 275 275 276 276 276 276 277 277 277 277 278 279 280 282 284 285 286 287 288 289 290 291 293 293 294 295 296 297 297 298 299 299 299 299 298 298 298 298 297
291 291 291 291 291 292 292 291 291 290 290 290 291 290 290 290 289 287 285 284 283 281 278 277 276 276 275 274 273 272 272 271 270 269 269 268 268 269 269 269 269 269 270 270 271 272 273 275 275 276 276 276 276 276 277 277 277 278 279 280 282 284 285 286 287 288 289 290 292 293 294 294 295 296 296 297 297 298 298 298 298 297 297 297 297 297
291 290 291 291 290 290 291 291 290 290 290 291 290 290 290 289 286 284 282 281 280 278 276 275 275 274 274 273 272 271 270 269 269 268 268 268 268 268 268 268 269 269 269 269 270 271 272 274 275 275 275 276 277 277 277 277 277 278 280 282 284 285 286 287 287 289 290 292 293 294 294 295 295 295 296 297 297 297 298 298 297 297 297 297 297 297
291 291 290 290 291 291 291 291 290 290 290 290 290 290 289 286 282 281 280 278 276 275 274 274 273 273 272 271 270 269 269 268 268 268 268 268 267 267 267 268 268 268 268 269 270 270 271 271 272 273 274 275 276 277 277 277 278 279 281 284 286 288 288 289 290 291 292 293 294 294 294 295 295 295 296 296 296 297 297 298 297 297 297 296 296 297
291 291 291 290 290 290 290 290 290 290 290 289 289 289 287 283 280 279 277 275 274 273 273 273 272 271 270 270 269 268 268 267 267 267 267 267 267 267 267 267 267 268 268 268 269 269 270 270 270 270 271 272 273 274 275 276 277 279 281 283 285 287 289 290 291 292 293 294 294 294 295 295 295 295 295 295 296 296 297 297 297 297 297 297 297 297
291 291 292 291 290 290 290 290 290 290 289 289 289 285 281 279 278 277 275 273 273 272 272 272 271 270 270 269 268 268 267 267 267 267 266 266 266 266 267 267 267 267 268 268 268 268 269 269 269 270 270 271 271 272 272 274 275 276 277 279 280 282 285 287 290 292 293 294 294 294 295 295 295 296 295 295 295 296 297 297 297 297 297 297 297 297
290 290 291 291 291 290 290 290 290 289 288 289 288 283 279 277 276 274 273 272 272 271 271 270 269 269 269 268 268 267 267 267 267 267 266 266 266 266 266 267 267 267 267 267 267 267 268 268 269 269 269 270 270 270 271 271 272 274 275 275 276 278 280 283 286 289 292 293 294 295 295 295 296 295 295 295 295 295 296 297 297 298 298 297 297 298
290 290 290 291 291 290 290 290 290 289 288 288 286 281 277 275 273 272 271 271 270 270 270 268 268 268 267 267 267 267 266 266 267 266 266 266 266 266 266 267 267 267 267 267 267 267 267 267 268 268 268 268 269 269 269 269 270 272 273 273 274 276 278 280 283 286 289 292 293 295 295 295 295 295 295 295 295 295 295 296 296 297 298 298 298 298
Wind_Speed
4 5 4 3 4 7 6 1 3 3 3 4 5 5 6 6 11 12 10 9 2 4 9 6 12 22 24 25 21 20 22 20 19 19 12 9 9 10 13 13 13 12 10 13 20 25 27 29 31 30 29 26 24 24 19 17 19 23 25 27 29 31 34 35 34 36 38 37 36 36 36 36 38 41 39 38 39 38 38 40 41 42 43 43 43 43
5 5 5 6 7 8 4 4 5 2 1 3 4 6 7 4 10 13 11 11 3 0 8 8 13 24 26 26 22 18 21 20 17 15 11 10 10 10 11 12 12 10 10 14 19 23 27 29 29 29 28 25 22 24 22 19 18 19 22 26 30 31 33 36 36 36 38 41 40 38 40 39 36 39 41 40 40 40 39 39 41 43 43 44 44 43
5 3 8 7 5 4 2 6 6 3 2 2 3 5 7 4 7 11 10 10 3 2 6 10 11 22 28 27 22 18 17 16 13 7 8 10 11 10 10 10 12 13 13 15 16 17 23 27 28 28 29 28 23 23 24 23 20 17 19 24 29 32 33 37 40 37 36 39 43 41 40 41 37 36 40 41 39 39 39 39 40 42 44 43 44 44
5 6 7 3 1 2 3 4 5 3 2 2 4 4 7 7 5 7 9 12 10 5 5 4 7 15 24 24 18 17 14 10 9 5 12 10 9 8 8 9 12 15 15 16 16 16 19 24 27 27 28 30 29 28 28 27 25 21 19 22 27 32 34 37 40 41 38 35 38 40 37 37 36 32 34 35 35 37 37 37 39 41 43 43 44 44
8 8 1 4 4 2 2 6 4 2 4 3 6 5 7 9 8 8 9 11 14 14 4 3 6 9 17 23 16 15 12 8 10 5 11 9 7 7 10 11 13 14 15 16 17 16 16 18 23 27 28 29 31 33 34 33 31 27 24 24 25 30 35 37 38 41 43 37 31 32 32 33 32 29 30 32 32 36 38 38 41 42 43 44 45 45
8 6 2 5 4 3 0 6 2 1 4 4 5 7 9 9 10 10 11 8 10 15 4 7 6 10 15 26 20 14 14 13 13 6 10 7 7 8 10 11 12 13 14 15 16 16 16 16 21 28 30 29 30 34 37 38 37 33 30 28 26 27 32 37 39 38 40 41 36 31 29 31 32 28 31 38 40 41 43 44 44 43 44 45 45 45
4 4 3 3 4 3 2 4 4 3 1 5 3 5 7 6 8 9 9 6 5 14 11 5 5 10 13 23 20 14 16 16 11 7 9 6 7 8 9 9 11 13 14 14 15 16 17 18 20 24 29 30 30 34 37 39 40 38 35 32 29 27 30 35 39 39 38 39 40 38 34 31 32 31 33 42 45 44 45 45 43 42 42 43 44 44
2 6 6 4 2 2 3 4 3 4 4 4 4 1 5 6 9 9 7 6 5 12 16 5 4 7 12 19 14 8 13 13 6 8 9 8 8 8 8 10 12 13 13 12 13 16 18 19 20 24 28 30 32 36 37 38 39 38 37 35 31 28 28 32 37 41 41 40 39 41 41 37 33 32 33 39 43 43 44 43 42 42 41 43 44 44
1 4 5 4 3 2 3 4 2 4 3 6 5 6 8 7 9 9 5 7 7 9 12 8 4 5 12 14 8 4 9 7 6 9 11 11 11 10 10 12 13 13 12 11 12 15 16 19 24 28 31 32 33 35 35 37 38 36 37 36 32 30 29 29 32 39 42 43 42 39 41 41 38 35 32 34 36 38 40 41 41 42 41 42 44 45
2 3 4 2 4 3 3 2 2 5 1 6 8 8 7 6 7 7 5 5 5 6 11 12 6 4 12 14 7 4 5 5 7 8 9 9 8 9 12 13 13 13 12 11 12 13 15 19 26 30 31 32 32 33 33 35 36 35 36 36 34 33 33 31 29 35 41 43 44 42 40 40 40 37 33 31 32 33 36 39 40 41 41 41 42 43
5 4 1 1 3 4 2 2 3 5 2 4 5 7 9 8 5 4 3 1 1 6 11 10 2 2 13 12 4 3 2 6 5 7 9 9 10 12 14 13 12 12 12 12 12 12 15 20 25 28 29 30 32 33 33 33 34 35 36 35 35 37 37 35 31 31 38 43 43 43 43 40 38 38 35 32 31 33 35 37 39 40 41 41 42 43
7 5 2 2 1 2 3 3 3 5 4 7 6 6 7 7 4 4 4 2 2 8 11 9 5 8 15 9 5 6 4 7 6 9 11 11 11 13 13 11 11 13 13 14 13 13 16 19 22 25 26 28 30 32 33 33 33 35 37 36 35 38 40 38 34 31 33 41 44 43 45 44 39 39 40 36 33 33 35 37 39 40 40 40 41 41
5 4 2 1 1 5 5 4 4 2 6 8 4 4 4 4 5 6 5 3 4 9 14 14 10 10 15 9 7 5 5 6 5 7 8 9 9 11 12 10 10 12 13 13 12 13 14 16 18 21 24 26 27 30 33 34 35 35 37 37 35 37 41 41 36 33 31 37 44 43 43 45 41 38 41 40 36 35 35 37 38 39 39 39 40 40
4 3 3 3 2 6 7 5 4 4 6 6 2 2 3 4 5 6 6 7 8 10 20 20 11 9 12 4 2 3 3 5 6 7 8 9 9 10 10 7 6 9 11 10 10 11 12 14 16 18 22 25 25 28 31 32 34 35 36 37 36 37 42 43 38 34 31 34 41 44 42 43 43 40 38 38 37 36 36 36 38 40 40 41 42 42
4 4 2 2 0 4 6 5 2 3 7 5 2 3 2 2 2 4 5 9 10 11 20 19 8 8 9 1 4 2 4 9 12 14 15 16 16 16 16 15 14 13 12 11 11 13 14 15 17 20 23 24 24 27 28 29 32 33 34 35 36 37 40 42 39 34 31 31 38 43 42 41 43 44 40 37 38 37 36 37 37 39 40 41 43 44
1 5 4 1 2 7 5 1 3 3 7 3 1 3 2 3 2 4 7 12 12 10 13 10 5 10 12 7 4 8 12 17 22 22 23 25 24 23 22 22 21 18 15 13 12 13 15 15 17 21 23 23 23 24 25 27 29 30 33 34 36 38 38 40 39 34 30 29 34 41 42 41 42 43 41 38 39 39 38 38 37 38 40 40 42 44
1 4 3 3 4 7 4 3 2 2 4 2 2 2 3 4 4 3 7 11 10 9 8 6 9 13 13 10 7 15 21 25 24 21 19 20 21 20 18 17 17 16 14 13 11 12 15 16 19 23 25 24 23 23 25 27 29 30 31 32 34 38 40 41 40 35 31 28 31 37 39 40 41 42 41 39 39 41 40 40 39 38 39 40 41 42
1 6 4 3 1 3 3 5 3 1 2 3 4 4 4 5 1 2 5 6 6 8 7 6 14 18 14 8 5 16 24 25 19 15 15 17 18 18 17 16 16 15 13 12 12 12 13 14 18 24 27 26 24 24 25 26 28 29 30 32 33 35 38 40 41 37 32 28 29 34 36 37 39 40 42 40 39 38 38 39 39 38 38 39 41 41
1 6 5 4 3 2 3 4 4 2 3 3 4 6 4 4 3 3 6 7 7 9 8 8 14 18 12 8 11 18 21 19 16 15 18 20 18 16 17 18 17 15 12 11 11 10 11 11 14 21 26 27 25 26 26 26 27 27 28 32 33 34 36 38 41 39 35 30 27 29 32 33 36 39 40 40 40 38 37 37 37 37 38 38 40 41
1 2 5 2 5 4 4 4 3 6 3 4 2 4 2 1 2 3 4 6 6 9 10 9 11 13 8 9 16 18 16 16 18 18 19 20 18 17 16 16 16 13 11 11 10 10 10 11 14 20 25 26 25 26 27 25 25 25 26 29 32 35 37 38 41 41 37 33 29 27 27 28 31 35 37 39 40 39 39 38 37 36 37 38 39 41
2 1 7 5 5 5 3 1 2 6 4 2 3 4 3 2 3 4 5 5 3 6 8 7 10 12 6 7 12 14 15 19 20 20 18 17 17 17 17 16 14 12 11 12 11 10 10 11 15 21 25 25 24 25 27 24 22 22 23 25 28 32 34 36 39 40 39 36 32 28 26 27 30 32 35 38 40 40 39 38 38 37 36 37 38 40
1 1 5 9 9 5 3 4 4 3 2 2 2 3 3 3 4 6 7 5 3 6 7 7 13 13 4 3 8 12 16 19 19 19 18 17 17 17 16 16 15 13 12 12 11 11 10 10 13 19 23 24 22 23 26 24 21 20 21 23 26 28 31 34 36 38 39 37 34 32 29 28 30 31 32 35 38 40 39 38 39 39 37 37 38 40
2 2 2 8 8 5 9 8 2 4 4 3 3 2 1 2 3 4 7 7 6 8 8 7 13 12 3 2 9 13 15 17 18 19 19 17 16 16 16 16 16 15 14 12 12 11 10 10 13 17 20 21 20 20 24 24 20 18 19 22 23 26 30 33 35 36 36 36 36 35 34 30 29 31 31 33 36 39 40 40 40 40 40 39 39 40
1 3 1 6 6 5 6 3 4 6 5 5 2 2 2 4 5 6 8 8 6 8 8 6 11 10 3 5 11 14 15 17 18 19 20 18 16 15 16 17 17 17 15 13 12 11 11 11 14 14 15 16 17 19 21 22 21 19 18 20 22 24 27 32 35 36 35 34 35 37 37 35 30 30 31 33 37 37 38 40 39 39 40 40 39 40
1 1 2 4 8 7 4 2 0 1 3 2 1 5 7 10 11 9 7 6 4 7 10 9 9 9 8 10 13 15 17 19 19 20 20 18 16 16 16 16 17 18 17 15 13 13 14 15 15 13 12 14 16 18 19 21 21 20 19 20 22 24 26 29 33 36 35 33 34 35 35 37 34 30 32 33 36 37 36 37 37 37 38 39 39 41
0 1 2 1 5 7 6 6 6 7 6 4 4 9 13 15 14 10 6 5 5 8 12 10 10 14 15 15 16 17 18 20 20 21 20 18 18 18 17 16 17 17 18 17 15 14 16 16 15 14 14 14 16 17 18 20 21 21 21 21 23 25 26 29 31 34 34 33 32 32 32 36 36 30 32 33 34 36 36 36 36 35 36 38 40 41
2 0 2 5 7 7 7 9 8 8 9 7 8 11 16 17 14 9 5 6 8 9 10 11 15 20 20 18 19 19 19 20 20 19 19 19 20 19 19 19 20 18 18 17 16 16 19 19 18 18 16 15 18 19 18 20 21 21 22 23 23 24 26 28 30 31 32 33 32 30 30 33 36 31 31 34 34 35 36 37 37 36 37 38 39 40
3 1 5 9 11 9 9 11 11 10 10 9 9 12 17 18 15 10 8 11 12 9 9 13 17 20 20 19 21 22 20 19 18 17 18 19 20 20 20 22 23 22 19 17 17 19 22 21 19 18 17 16 17 19 20 21 23 23 24 25 25 25 25 28 29 30 31 32 32 30 30 32 36 35 31 33 34 35 37 37 38 38 38 38 40 42
2 4 7 9 11 9 8 11 11 10 10 8 9 14 18 18 16 13 13 16 13 8 12 18 20 20 19 18 21 22 21 19 19 18 17 19 21 22 23 25 25 24 23 21 20 20 21 22 21 19 17 16 15 17 20 21 22 24 26 27 28 27 27 28 28 28 29 30 31 32 32 33 35 36 33 32 34 36 37 37 38 39 39 39 40 42
2 2 5 6 9 8 8 10 10 9 8 8 12 18 18 17 18 16 15 16 13 12 18 23 21 20 18 17 20 21 20 19 18 16 18 21 23 24 26 27 26 26 25 23 22 21 20 21 22 19 16 16 15 16 18 21 23 24 26 27 29 29 30 29 26 27 28 28 31 33 33 34 35 35 34 32 33 36 38 39 38 38 39 40 40 39
1 2 3 3 5 8 7 8 8 7 7 10 17 20 16 14 15 12 11 12 11 14 21 23 19 16 14 16 19 21 21 22 19 18 21 22 22 23 26 28 29 29 27 26 25 22 20 21 21 18 17 17 18 18 19 22 25 26 26 27 27 30 32 28 25 26 28 27 30 32 32 33 35 35 33 31 32 34 37 39 39 38 38 38 40 41
1 2 1 2 3 7 7 6 9 9 9 12 16 13 9 8 9 9 11 11 12 17 22 19 14 13 13 15 18 21 24 27 25 21 20 21 23 26 28 29 31 31 28 26 24 21 21 21 20 19 19 18 19 21 23 25 26 26 26 26 27 31 32 28 25 26 27 27 28 30 30 30 33 35 33 29 31 33 35 37 39 39 38 37 38 39
2 2 1 1 2 7 9 9 9 9 7 7 6 1 3 8 11 13 14 13 14 16 16 12 11 14 16 17 19 21 25 29 27 18 17 22 26 29 31 30 30 30 27 25 26 26 25 22 19 19 19 20 22 25 27 28 27 26 25 26 28 31 31 29 27 27 26 26 27 28 29 29 31 35 33 28 30 32 33 34 37 38 38 38 38 38
3 3 1 1 1 6 11 10 8 7 5 4 2 4 7 11 13 15 17 16 15 14 14 14 16 19 19 18 20 22 24 28 28 19 17 24 26 26 31 30 25 24 25 25 26 28 26 24 23 23 25 30 35 37 37 34 31 29 31 32 32 32 31 30 30 29 26 25 26 27 28 27 29 34 34 28 27 29 30 33 35 37 38 37 37 38
3 3 1 1 1 4 7 7 6 5 4 5 9 12 12 13 13 16 18 17 15 15 17 19 19 21 20 19 21 22 21 27 34 30 22 23 26 22 20 22 23 24 25 25 25 27 26 25 24 25 29 36 41 41 40 37 37 38 40 40 37 34 33 32 31 29 26 24 25 26 25 24 27 33 33 28 25 26 29 32 33 34 35 36 37 39
4 3 2 2 1 2 3 2 3 5 6 10 16 14 10 9 10 11 13 14 14 15 17 18 19 21 22 22 20 18 20 26 33 33 23 16 19 21 18 19 24 26 25 24 24 25 25 27 30 31 35 39 41 40 39 39 41 42 42 42 39 35 35 34 31 28 24 22 24 25 24 21 25 31 31 26 24 25 28 31 32 33 33 34 36 37
5 3 1 1 2 2 2 3 5 7 10 11 11 7 3 4 6 6 9 14 15 14 14 16 20 22 23 23 21 20 22 22 22 27 25 17 15 18 20 23 26 27 26 26 29 32 33 35 37 38 40 42 42 40 40 41 41 39 37 37 35 32 33 32 28 25 22 21 23 25 23 19 22 28 29 25 23 24 27 30 31 32 33 33 32 34
6 4 3 2 2 1 1 4 5 5 6 6 6 7 5 5 5 5 8 12 12 10 12 15 20 22 22 23 25 23 20 18 16 20 25 27 24 22 24 28 27 25 26 28 33 38 42 42 41 39 39 41 41 40 40 41 41 37 31 28 27 27 28 26 24 23 21 21 23 25 24 19 20 25 26 24 23 24 27 29 29 30 32 33 33 33
5 4 3 3 3 1 1 4 4 4 5 5 8 11 9 6 5 6 8 10 9 11 16 18 21 23 22 21 23 20 13 12 15 17 23 33 38 35 32 31 31 31 32 35 36 36 40 44 45 43 39 36 37 38 38 39 39 34 28 26 26 25 22 21 22 23 22 22 24 26 25 21 18 21 23 23 25 26 27 28 29 30 31 33 33 33
3 2 2 3 5 4 3 4 4 5 5 6 10 12 8 5 6 7 9 10 11 15 18 19 21 21 20 19 19 15 11 10 15 22 31 38 41 38 33 31 32 32 34 40 42 41 41 42 39 35 34 33 35 37 36 35 34 29 26 27 26 21 19 20 23 25 25 25 25 25 26 23 18 17 20 22 25 28 29 29 29 29 30 31 31 31
2 2 3 4 5 6 6 5 4 5 6 8 12 12 6 3 4 7 9 10 13 16 17 18 18 17 16 17 14 11 14 18 20 26 34 36 37 37 35 34 36 37 36 40 45 45 43 40 36 33 34 37 39 37 34 32 29 26 26 24 20 19 23 27 28 28 27 26 26 26 27 25 21 17 17 20 24 26 28 29 29 29 30 30 28 28
2 2 2 4 4 4 4 4 4 7 6 6 8 9 5 3 4 7 9 11 14 16 16 17 16 14 14 18 17 15 20 27 28 29 32 32 32 34 34 34 35 38 39 42 45 45 40 36 36 36 36 39 39 34 31 29 26 25 25 21 18 24 32 34 33 31 29 28 28 28 28 26 23 18 16 18 22 25 26 27 28 29 30 30 28 28
3 2 2 3 3 2 3 3 4 7 4 1 4 7 5 4 6 9 10 11 12 14 14 14 14 14 14 18 22 23 28 33 31 28 30 30 29 29 31 31 30 32 35 37 42 46 41 31 29 32 34 36 35 31 30 28 25 23 22 20 23 29 32 31 30 30 29 29 29 29 29 27 24 20 17 18 21 25 26 26 27 28 28 29 28 26
3 3 2 3 2 1 3 4 4 6 5 5 7 7 6 6 7 7 7 8 9 10 10 10 14 16 16 19 24 25 29 33 31 28 28 30 29 28 29 30 28 29 32 34 39 46 41 28 25 31 36 37 34 31 30 27 22 21 21 24 29 30 27 26 27 27 27 29 29 28 28 27 25 21 18 19 22 26 27 27 27 26 26 27 26 23
4 5 4 4 5 4 5 6 7 8 9 8 7 8 9 8 6 6 7 7 6 7 7 8 14 18 19 23 25 24 24 28 30 30 29 29 29 29 29 29 29 29 32 35 39 43 40 32 28 29 32 35 35 31 28 25 21 20 24 29 31 29 27 28 28 27 27 28 27 27 27 26 23 21 20 21 23 25 26 26 25 24 24 26 25 22
5 4 4 4 6 6 7 9 10 11 10 7 7 9 8 4 5 7 8 7 6 6 8 9 13 17 20 22 23 23 25 27 29 30 29 27 27 28 27 27 29 30 32 34 37 42 43 37 31 26 24 30 33 29 25 23 21 21 26 31 30 27 27 27 26 25 25 26 26 26 26 23 20 20 21 23 24 25 26 26 25 22 22 23 23 22
3 4 5 7 7 6 6 8 10 10 9 8 10 10 5 4 6 6 5 6 7 8 10 13 15 16 17 19 21 23 26 28 28 28 27 25 25 27 27 27 27 29 31 32 35 40 39 32 28 26 25 28 32 32 27 23 22 22 26 29 27 26 26 25 24 23 23 24 24 24 22 19 18 19 20 22 23 24 25 26 26 23 21 21 21 19
2 2 3 7 8 7 8 11 12 11 11 10 8 3 4 6 8 7 4 6 9 9 9 13 16 16 15 18 20 23 25 25 24 26 26 23 22 23 24 25 27 30 33 36 38 39 34 27 26 28 26 27 33 37 34 29 26 25 26 28 28 26 25 24 22 21 21 22 21 20 19 18 18 18 18 20 22 23 23 24 25 24 23 24 23 20
3 2 3 4 6 8 10 12 9 7 10 11 4 4 5 2 5 7 7 8 10 11 10 11 14 16 17 19 20 22 24 22 20 23 26 23 21 22 23 24 27 30 33 36 37 36 34 30 29 29 28 29 34 37 36 34 34 32 30 29 29 27 25 23 21 19 20 20 19 19 19 19 19 19 18 18 20 22 24 26 27 25 24 27 31 30
5 7 6 3 4 8 10 8 3 2 8 12 6 5 5 2 3 6 9 9 10 12 14 14 14 14 16 20 20 20 22 21 21 23 24 21 20 23 25 26 28 30 33 35 35 35 35 34 34 32 31 33 35 35 36 36 36 34 32 32 30 28 24 22 20 18 17 17 17 18 18 17 17 18 18 17 17 19 22 26 31 32 29 28 32 35
7 9 7 5 7 10 11 7 3 2 7 10 6 5 5 4 5 6 8 10 11 13 14 15 16 14 14 17 20 19 20 21 23 23 22 21 23 27 29 28 27 28 32 34 33 32 35 37 37 34 33 34 36 36 37 38 38 36 35 33 31 28 24 21 17 13 12 13 14 16 16 15 14 15 16 16 16 16 16 17 23 30 33 32 33 35
Wind_Direction
53 26 345 274 274 280 284 202 191 213 221 281 300 285 286 296 292 293 290 286 345 326 303 315 301 299 299 298 303 306 306 306 306 313 333 12 20 16 20 16 13 13 360 355 2 3 357 354 357 355 350 347 339 333 318 288 267 251 242 239 234 227 218 213 209 204 199 195 193 193 196 199 199 200 201 201 202 203 206 207 206 204 204 203 204 209
44 22 289 251 237 255 270 126 130 113 81 302 300 301 306 287 279 290 292 293 344 47 297 336 318 300 297 297 300 302 301 301 305 318 346 33 42 34 29 15 9 8 356 359 3 360 355 352 352 353 355 350 338 334 327 307 284 259 244 241 240 235 224 217 213 210 205 200 198 196 196 198 198 196 197 198 199 201 205 206 205 205 205 204 206 210
8 311 266 255 231 257 339 107 119 113 102 287 287 306 307 290 283 292 291 296 331 134 304 339 322 297 294 293 296 294 290 293 305 346 43 52 47 36 23 12 7 4 1 360 357 355 352 350 351 352 354 353 344 335 329 317 301 278 254 245 243 240 232 223 217 215 214 208 204 203 201 199 198 197 197 197 198 200 202 204 205 205 205 205 205 209
318 278 257 253 285 316 336 39 76 75 78 215 260 297 292 296 308 296 304 316 316 277 267 301 290 286 289 290 292 288 283 290 306 47 80 65 56 42 18 13 7 3 360 355 353 352 351 350 353 353 350 350 348 342 337 330 317 301 277 259 248 242 238 231 223 220 221 219 211 210 209 204 201 200 198 196 197 199 200 202 205 205 205 205 206 207
276 275 274 65 42 74 292 327 14 3 330 234 229 246 265 287 287 274 303 327 316 299 258 162 274 277 285 289 291 292 297 305 305 23 75 60 52 37 18 15 7 2 356 351 351 349 350 351 351 350 348 349 349 344 340 336 328 315 299 282 261 246 242 238 232 224 222 225 220 212 209 204 201 201 196 191 193 197 199 201 204 206 205 205 205 206
273 275 57 54 13 65 27 302 302 220 319 296 241 226 240 274 283 284 310 338 327 304 319 77 316 290 288 289 292 301 305 301 305 9 68 51 34 29 22 15 4 1 355 351 350 348 350 351 350 349 347 347 346 342 338 336 332 325 315 302 281 258 248 244 239 229 220 220 218 213 207 196 192 193 189 188 190 194 198 201 203 205 206 205 204 204
286 309 50 53 301 335 353 297 253 170 37 310 260 203 225 260 281 285 304 326 323 291 303 34 305 286 288 285 289 300 296 293 309 37 64 36 30 29 22 15 4 1 356 352 350 350 352 350 350 348 344 342 339 336 334 333 332 329 324 315 300 278 259 249 243 236 225 219 214 212 214 207 197 195 193 191 192 195 198 199 199 202 204 204 204 203
310 333 13 28 318 338 330 303 256 144 113 266 256 350 305 296 286 282 287 285 274 282 295 306 230 268 280 278 290 295 283 293 332 44 38 18 26 25 20 15 5 1 356 353 353 353 353 351 350 346 341 338 335 334 333 331 329 327 327 322 311 296 276 260 250 241 231 223 216 211 213 216 213 207 200 194 193 196 197 197 196 198 201 202 203 204
307 324 326 324 324 312 276 283 235 122 113 261 288 329 305 288 276 277 281 273 282 291 293 288 250 266 271 279 320 311 278 312 15 36 20 7 14 16 12 7 2 2 357 356 355 352 352 350 348 344 339 336 336 337 336 333 330 327 329 326 316 306 293 276 261 248 237 227 221 216 212 215 218 217 210 200 194 194 195 195 196 196 199 201 202 203
248 243 244 278 288 253 260 288 159 115 34 291 314 323 299 289 275 271 271 271 304 296 280 286 280 260 275 289 333 323 298 1 18 21 11 360 11 11 3 1 1 1 357 357 354 348 348 347 345 342 338 338 338 339 340 340 338 335 334 331 321 312 303 292 274 257 245 234 224 219 216 213 212 213 213 206 197 193 192 194 196 196 197 199 200 202
284 279 202 102 260 212 179 336 139 126 20 325 342 340 322 317 310 295 286 274 337 277 273 282 277 298 293 296 344 341 55 78 31 2 360 1 15 6 357 358 359 360 357 351 346 341 340 341 343 344 341 340 340 341 343 344 344 343 340 335 327 320 310 298 284 265 250 240 230 221 219 217 210 206 207 206 199 194 191 191 195 196 197 198 200 201
319 326 50 127 228 112 87 28 90 125 48 15 9 350 328 320 330 322 330 26 271 272 280 292 342 322 290 291 340 329 39 73 33 6 4 5 8 356 349 352 358 0 354 346 343 341 341 341 345 348 347 345 344 344 344 345 346 345 342 338 332 326 319 304 288 273 257 244 236 227 220 219 214 205 203 205 202 196 191 190 193 196 197 198 199 201
320 296 337 158 111 36 47 22 1 45 44 16 343 355 349 324 326 314 327 337 262 272 284 297 334 306 273 290 340 351 41 35 4 10 13 6 355 344 345 353 1 358 347 341 339 338 341 343 345 348 349 347 346 346 345 344 345 343 341 340 337 329 324 314 294 276 264 249 239 233 225 218 215 209 203 203 204 201 196 191 192 194 196 197 198 200
324 294 11 19 355 29 58 63 358 336 2 346 276 84 17 333 326 312 317 307 281 281 289 299 325 297 277 303 58 91 52 332 330 0 3 353 342 338 343 351 359 352 343 337 330 331 340 343 344 347 348 347 345 345 345 342 341 339 338 339 338 333 328 322 304 279 267 256 243 237 231 220 216 215 209 203 202 202 200 196 194 194 196 197 198 200
332 304 360 38 36 49 56 82 130 291 324 317 179 102 51 57 1 299 296 293 291 290 291 300 312 286 295 34 135 91 345 334 346 352 351 349 345 345 347 350 352 350 348 342 332 334 339 342 345 346 346 345 342 342 341 340 337 335 334 336 337 335 331 327 312 285 271 265 249 238 233 223 216 216 215 210 206 205 203 201 198 197 198 200 200 200
310 273 262 307 76 92 80 119 169 300 321 299 129 56 54 118 175 262 268 266 277 281 280 294 278 270 299 314 339 357 348 347 351 351 352 348 345 348 347 347 346 342 342 338 330 330 333 338 343 345 344 339 337 337 336 335 334 331 330 332 337 336 334 332 319 293 278 274 255 239 233 225 218 215 214 212 210 208 208 206 202 200 200 201 202 200
331 277 270 324 18 102 119 306 283 278 301 306 15 7 276 249 201 234 273 258 265 278 274 298 284 278 299 308 342 2 348 343 347 349 347 338 336 341 339 337 334 329 329 324 320 327 332 338 342 343 342 336 331 332 331 331 330 329 329 330 335 339 339 337 326 301 284 284 266 245 233 226 220 215 212 211 210 208 208 208 207 204 202 201 203 203
269 286 255 198 222 168 218 337 18 132 79 34 334 299 285 301 219 198 285 267 266 276 276 305 293 291 300 297 357 3 341 333 336 334 327 324 330 333 327 326 323 318 316 311 313 323 329 337 338 337 335 330 324 322 324 326 326 328 330 331 334 339 339 337 331 311 290 289 279 254 238 227 221 217 212 211 212 209 206 206 206 204 203 202 203 204
325 305 282 159 119 286 290 34 43 342 62 90 312 314 332 349 342 320 308 302 305 293 287 300 290 289 298 307 338 343 328 322 325 322 322 324 327 325 320 320 317 312 308 304 307 313 319 327 328 328 327 322 317 315 318 322 324 326 331 333 335 338 339 339 335 322 300 293 288 265 245 233 226 221 215 212 212 212 209 208 206 204 204 203 202 202
56 302 277 146 85 352 337 50 8 306 340 91 36 346 347 352 325 308 280 286 306 291 286 297 285 281 304 324 323 323 317 317 320 320 320 319 318 317 315 314 310 306 299 295 296 298 307 315 317 321 321 315 309 309 313 316 320 325 329 333 334 335 339 340 337 330 314 302 297 281 259 245 235 226 218 213 212 213 213 211 209 207 206 203 202 201
63 224 265 294 360 354 342 91 289 306 329 27 28 9 5 7 332 303 273 265 281 277 287 305 281 276 309 322 308 313 315 316 317 316 313 311 311 312 311 309 304 297 291 288 289 293 298 303 311 318 318 312 305 303 307 310 314 319 325 330 333 334 336 338 335 332 325 315 306 293 274 256 246 235 224 215 212 212 213 212 210 210 209 206 203 201
100 180 267 293 317 335 300 256 256 270 231 168 81 28 3 344 339 321 296 283 278 279 292 301 284 285 316 313 300 315 314 312 314 311 307 307 310 309 307 306 299 291 290 286 283 288 291 294 307 316 316 310 301 297 301 305 307 313 321 326 330 332 333 334 331 328 327 324 317 308 295 272 253 242 232 221 215 213 212 211 211 210 209 209 206 203
154 119 268 281 289 287 283 288 250 166 142 115 89 50 330 310 335 304 287 296 297 286 289 280 276 285 329 318 305 311 307 309 310 306 306 308 310 308 305 303 297 293 291 284 280 284 285 291 304 311 311 305 295 289 293 297 299 304 314 321 325 328 330 331 327 324 325 328 326 321 314 296 264 242 233 227 221 216 211 210 210 209 208 209 207 203
99 76 338 287 291 277 272 292 134 139 88 58 28 340 322 296 287 263 269 288 288 288 296 277 267 282 328 320 304 304 305 308 307 305 308 310 309 308 304 302 301 299 297 289 283 282 281 292 305 308 308 302 291 283 284 287 290 296 305 313 317 321 326 328 326 323 323 325 327 327 324 313 285 248 229 225 223 219 213 209 208 208 207 206 205 203
322 12 24 331 315 315 319 348 307 274 29 54 310 323 311 292 292 287 283 289 281 289 295 286 276 290 308 306 300 303 306 305 304 306 309 309 308 306 304 304 304 301 300 295 287 283 285 295 305 306 301 297 288 278 277 282 285 292 301 308 313 315 320 326 326 323 321 320 323 326 327 322 302 259 229 222 222 219 216 212 208 207 206 205 204 204
266 242 88 41 298 303 305 300 299 312 327 340 346 329 309 300 303 303 304 304 289 288 289 283 281 289 296 300 301 303 304 302 304 307 307 306 306 305 307 307 304 301 299 296 289 284 288 295 300 299 295 293 287 274 272 280 286 293 301 306 310 311 314 321 324 322 318 315 316 319 323 325 312 272 234 223 221 218 217 214 211 210 209 207 205 204
106 190 212 215 232 247 264 273 286 300 300 308 327 315 298 296 298 300 304 288 279 286 286 275 280 290 297 303 303 303 304 303 304 307 308 307 306 307 308 305 301 298 294 292 288 285 289 294 295 295 292 290 286 276 270 279 288 296 304 307 308 309 310 315 319 319 315 311 311 312 314 321 318 291 249 226 219 217 215 213 212 210 210 209 206 202
108 247 242 234 238 244 259 271 281 288 287 296 307 295 285 287 293 295 283 275 281 292 285 278 284 291 297 302 303 303 303 301 304 308 309 307 306 305 302 298 296 294 289 285 283 285 290 293 293 292 290 287 284 278 273 277 287 297 304 306 307 308 308 309 312 315 315 311 306 306 308 312 316 305 271 236 220 214 212 211 211 211 210 209 206 203
126 237 233 239 252 249 249 262 270 275 281 291 286 276 277 282 287 286 277 276 281 278 278 286 291 291 294 299 300 301 302 302 305 309 306 302 300 298 295 295 294 293 291 287 284 285 288 290 291 289 286 285 281 278 277 278 286 297 303 305 307 308 307 307 307 310 312 309 303 301 304 307 311 309 288 251 223 212 209 209 209 209 208 207 206 205
123 232 218 235 266 265 250 255 259 260 273 285 277 271 274 279 281 279 275 276 278 273 277 286 291 291 295 299 299 301 303 301 302 304 299 296 295 294 294 294 293 292 291 288 287 287 286 287 290 287 282 280 277 276 278 280 287 295 299 302 304 306 307 304 303 306 307 306 302 298 299 304 307 306 294 262 228 211 207 206 205 205 204 205 207 206
141 241 214 219 280 282 264 255 258 265 278 280 275 272 272 275 276 276 279 285 293 287 285 291 296 296 296 300 304 306 303 299 300 300 299 297 296 293 293 294 294 293 291 289 288 287 286 286 287 285 281 280 281 281 279 281 287 292 295 297 299 303 305 301 298 302 302 301 300 296 294 301 305 305 294 266 233 214 206 203 201 201 201 201 201 202
223 260 324 28 323 285 280 289 293 298 296 277 271 270 272 278 283 287 291 297 299 292 292 299 302 298 302 308 308 306 301 298 300 303 304 304 302 299 297 295 293 291 289 291 293 295 297 296 295 295 292 287 287 285 283 285 289 290 291 293 296 300 301 296 293 296 297 296 298 293 290 296 303 304 294 266 235 217 208 202 199 199 198 195 194 195
200 205 297 1 315 283 291 304 306 316 319 286 269 293 318 301 302 299 295 293 291 291 296 300 297 297 305 310 307 305 303 300 302 311 314 309 306 302 297 292 291 296 304 313 317 319 318 315 314 314 310 308 306 303 300 298 295 292 293 295 299 301 298 294 294 293 293 295 295 290 287 293 303 304 293 267 236 218 207 200 196 195 196 195 193 192
193 175 204 262 265 285 293 308 325 328 310 270 299 2 323 303 298 293 290 289 287 284 284 288 295 300 303 306 306 305 304 302 303 311 315 306 301 296 295 299 308 319 324 325 321 318 316 312 310 309 305 303 303 303 304 304 301 302 303 302 302 300 295 294 295 292 290 293 292 286 284 292 304 303 292 268 239 219 205 198 195 194 194 193 192 192
183 173 180 206 190 272 298 327 337 303 255 273 308 314 303 293 286 282 283 284 283 282 286 291 297 299 300 303 304 303 307 309 306 307 308 299 295 300 309 320 331 331 324 321 318 314 312 310 308 307 303 299 296 293 292 292 293 296 298 298 297 295 293 293 291 289 287 287 286 283 281 291 307 304 289 266 239 219 206 200 197 193 190 190 191 193
176 183 187 187 209 286 315 329 270 270 293 304 300 298 295 289 288 290 290 291 291 290 293 294 296 300 303 304 305 309 318 317 307 301 303 303 308 323 334 328 323 319 314 313 313 310 311 313 312 310 307 305 303 300 294 289 287 286 286 286 287 288 289 289 284 281 280 279 281 280 277 291 310 305 287 261 235 218 207 202 199 194 190 189 191 194
173 168 153 215 241 235 239 241 259 292 307 297 281 275 274 271 282 297 296 295 295 290 290 296 302 307 310 309 315 322 323 319 305 299 310 330 339 333 324 314 312 311 307 307 308 304 303 304 304 305 306 305 305 305 303 298 293 287 280 278 280 282 283 281 276 274 274 274 278 278 275 288 311 305 283 255 229 217 209 204 201 195 190 189 189 193
189 188 167 203 248 164 237 276 285 293 282 267 264 271 274 270 279 296 294 294 297 294 299 310 311 312 315 318 324 329 327 323 311 300 313 331 336 329 321 315 312 309 306 307 308 306 304 303 301 300 301 302 301 300 301 301 299 292 282 277 278 279 277 272 268 270 272 272 275 275 273 282 306 305 282 249 226 219 211 205 202 197 192 190 190 192
214 222 191 210 250 125 154 265 268 258 254 262 276 282 290 300 308 315 302 296 308 320 322 323 319 319 325 327 326 329 331 322 306 299 313 324 324 322 322 319 316 315 312 309 306 303 301 302 302 299 295 295 296 296 298 300 298 293 284 279 278 274 269 266 268 270 270 271 273 272 270 275 294 301 283 250 227 219 214 208 203 199 195 194 193 193
234 235 195 216 237 216 206 243 255 248 245 248 262 273 286 298 310 320 305 298 321 331 326 323 323 326 330 326 323 323 318 306 298 301 310 315 314 314 317 317 316 315 313 310 308 303 297 296 300 300 295 293 295 297 298 297 295 291 286 282 276 267 262 267 272 274 272 273 274 269 266 269 277 288 281 257 232 220 214 210 204 198 196 196 195 194
256 232 191 200 227 230 228 245 266 264 247 242 256 271 282 288 308 310 295 301 323 326 322 325 327 329 327 321 318 312 300 297 296 299 304 308 308 310 313 314 312 310 309 308 308 308 304 300 300 302 298 294 295 297 296 293 292 291 289 284 276 269 271 273 275 276 275 274 273 269 263 263 265 272 277 264 242 224 214 209 203 198 196 196 197 195
232 239 215 197 210 227 219 223 272 281 252 221 248 277 300 330 311 295 293 311 323 322 327 331 325 325 326 317 310 304 299 301 302 302 303 305 308 309 311 313 313 312 313 312 311 310 308 303 301 302 299 296 296 295 292 290 290 290 288 282 276 275 274 271 270 271 272 272 272 268 262 259 259 260 266 264 247 228 217 211 205 200 196 195 196 196
188 185 250 215 191 223 239 231 265 271 255 84 340 313 320 322 297 296 308 320 324 327 335 331 318 321 328 315 307 306 306 306 308 308 306 306 308 307 308 311 313 314 315 317 316 313 310 305 304 304 301 298 297 295 294 292 288 287 285 281 280 277 271 265 263 264 267 270 269 265 261 259 257 254 254 254 242 228 220 214 208 201 197 194 195 196
197 171 218 248 231 209 219 221 230 244 268 331 331 307 294 294 298 316 328 322 326 337 339 324 314 318 320 312 307 307 307 307 310 313 312 311 312 312 312 314 316 317 318 319 319 318 314 309 309 310 306 303 299 296 295 292 285 285 284 279 279 278 271 265 264 263 266 267 264 261 260 258 255 253 252 248 236 224 218 213 207 201 198 195 194 195
221 187 192 240 247 225 219 239 257 269 283 300 298 282 286 299 326 2 352 328 331 341 334 318 314 314 315 313 311 308 306 307 310 313 314 314 315 316 316 316 318 321 323 322 324 326 323 316 310 308 306 304 303 299 294 289 285 287 286 280 278 274 267 264 262 260 262 261 257 256 257 255 252 251 253 249 234 219 213 210 204 200 198 195 194 195
230 190 189 239 258 262 257 255 261 271 280 284 283 284 293 323 19 16 350 334 335 332 321 310 307 309 312 312 310 308 307 309 312 313 313 315 316 316 317 318 319 324 326 325 327 330 330 324 316 310 306 306 307 303 294 285 282 284 286 286 284 277 270 265 261 258 256 254 254 256 253 249 250 253 253 248 235 221 212 207 201 198 196 194 194 195
244 180 198 241 264 278 270 258 262 274 283 285 286 291 311 15 27 23 360 330 324 322 316 308 305 308 308 305 304 304 306 309 312 312 313 317 318 317 319 321 323 325 327 327 328 330 331 330 327 326 323 319 319 318 311 298 287 284 291 297 296 291 284 273 263 258 256 254 254 254 249 246 252 254 249 240 231 222 214 206 200 198 196 194 193 194
259 149 189 234 250 254 259 268 278 286 286 280 279 305 8 360 353 2 358 321 315 315 310 306 308 311 308 304 304 304 306 309 311 312 315 319 319 319 321 323 324 325 327 328 330 331 330 330 330 329 328 326 327 328 325 320 316 315 317 318 315 312 304 290 274 263 260 258 256 253 251 253 254 250 240 230 224 220 214 205 200 199 201 199 194 193
208 217 199 220 251 263 267 274 284 297 294 287 286 88 80 11 335 335 327 319 316 314 312 310 310 308 306 306 308 308 307 308 311 314 316 318 321 323 323 323 324 326 327 329 331 332 331 329 328 328 327 327 327 327 327 327 327 327 328 326 323 321 315 303 290 278 267 263 261 259 260 258 252 243 233 223 218 218 216 209 202 200 204 205 203 200
211 236 231 222 256 264 263 262 267 311 292 288 307 59 72 61 21 338 323 321 317 314 316 317 312 304 300 304 308 310 307 308 313 318 318 318 323 325 323 323 325 327 329 331 331 330 329 328 328 328 327 326 327 328 328 327 325 325 327 326 322 318 311 302 297 288 274 267 263 259 257 253 246 236 226 215 211 213 216 215 209 204 205 207 208 207
215 222 217 211 232 252 260 248 176 175 262 277 317 24 38 37 22 348 324 316 310 310 314 315 313 309 304 306 310 310 307 308 315 320 319 319 322 324 324 325 328 330 332 333 333 332 331 331 331 331 330 329 330 329 327 324 323 322 322 318 314 309 301 295 295 290 279 272 265 258 254 247 236 228 218 209 204 203 205 211 211 209 209 209 209 209